Powrót do katalogu

STARLINK-3958

AktywnyŁącznośćVLEO
NORAD 52535·PAYLOAD·🇺🇸 United States

Wystrzelony May 13, 2022 z Vandenberg Space Force Base

Loading…

Następne Przeloty (najbliższe 24 godziny)

TLE

ŚwieżeSource: CelesTrak SupGP

Epoka: Sep 14, 2026, 20:33 UTC

1 52535C 22051C   26257.85673611 -.00022558  00000+0 -68456-3 0  2571
2 52535  53.1593 348.2591 0001247  76.6958   0.2665 15.33557638    11

Śledź STARLINK-3958 w czasie rzeczywistym z AllMySat

Download on the App Store